Regional Weather Roundup
Issued by NWS Bismarck, ND

Home | Current Version | Previous Version | Text Only | Print | Product List | Glossary On
Versions: 1 2 3 4 5 6 7 8 9 10 11 12 13 14 15 16 17 18 19 20 21 22 23 24 25 26 27 28 29 30 31 32 33 34 35 36 37 38 39 40 41 42 43 44 45 46 47 48 49 50
000
ASUS43 KBIS 110459
RWRBIS

NWR BROADCAST TEXT
NATIONAL WEATHER SERVICE BISMARCK ND
1200 AM CDT FRI JUL 11 2014

NOTE: "FAIR" INDICATES FEW OR NO CLOUDS BELOW 12,000 FEET WITH NO
SIGNIFICANT WEATHER AND/OR OBSTRUCTIONS TO VISIBILITY.


CITY           SKY/WX    TMP DP  RH WIND       PRES   REMARKS
WILLISTON      CLEAR     70  61  73 N12       29.87R
MINOT          MOCLDY    71  67  87 N12       29.82R
MINOT AFB      NOT AVBL
BISMARCK       CLEAR     66  64  93 SE5       29.83S
DICKINSON      NOT AVBL
GARRISON         N/A     68  67  96 S7        29.80S
HETTINGER ARPT PTCLDY    69  65  86 SE6       29.87S
JAMESTOWN      CLEAR     66  64  93 S5        29.82F
HAZEN          FAIR      70  66  88 S7        29.81S
MANDAN         FAIR      68  66  94 S6        29.84S
$$

CITY           SKY/WX    TMP DP  RH WIND       PRES   REMARKS
GRAND FORKS    MOCLDY    69  64  84 S6        29.81S
GRAND FORKS AF NOT AVBL
DEVILS LAKE    CLEAR     68  61  77 S7        29.81S
FARGO          MOCLDY    71  67  87 SE10      29.82F
GRAFTON        FAIR      66  66 100 S8        29.81R
GWINNER        MOCLDY    72  70  94 SE3       29.84F
$$

CITY           SKY/WX    TMP DP  RH WIND       PRES   REMARKS
ABERDEEN       LGT RAIN  71  68  90 S5        29.83R
MOBRIDGE       CLEAR     67  65  93 CALM      29.81S
BUFFALO          N/A     72  65  78 S7        29.83R
RAPID CITY     PTCLDY    72  61  68 W6        29.91S
GLASGOW        CLEAR     67  58  72 E10       29.88R
SIDNEY         CLEAR     68  59  73 NW7       29.90R
WOLF POINT     CLEAR     66  57  72 N9        29.90R
GLENDIVE       CLEAR     72  61  68 N13       29.90R
MILES CITY     CLEAR     75  56  51 NE10      29.87R
BAKER          CLEAR     70  60  70 N6        29.91R
$$

CITY           SKY/WX    TMP DP  RH WIND       PRES   REMARKS
BILLINGS       PTCLDY    79  52  38 SW8       29.90R
GREAT FALLS    CLEAR     74  45  35 N9G17     29.90R
$$




USA.gov is the U.S. government's official web portal to all federal, state and local government web resources and services.